Погода в Куваке-Никольском

Россия / Пензенская область     53°37′05″N   43°30′27″E
В апреле 2022 года жителям России запретили посещать сайт meteo.paraplan.net по решению Генеральной прокуратуры. Аудитория сайта уменьшилась в 10 раз. Владельцы сайта не видят смысла в поддержке погодного сервера в таких условиях. Сайт будет закрыт в октябре.
темп.,
°C
ветер,
м/с
пор.,
м/с
влажн.,
%
обл.,
%
осадки,
мм/ч
давл.,
гПа
погр.,
м
4 октября, вт
вт400:00+9ююв49811 0.0 1015167
03:00+8ююв411825 0.0 1015208
06:00+8ююв5128483 0.0 1016238
09:00+12ююв61273100 0.0 1016586
12:00+15ююв71161100 0.0 10171223
15:00+17ююв71053100 0.0 10161623
18:00+13ююв5107184 0.1 1016269
21:00+12ююв8158699 0.2 1016505
5 октября, ср
ср500:00+11ююв81390100 0.3 1016758
03:00+11ююв71390100 0.9 1016610
06:00+11ююз5990100 0.6 1016492
09:00+12ююз610727 0.6 10171125
12:00+13юз7105694 0.0 10171601
15:00+13ююз61059100 0.1 10171678
18:00+9юз51086100 1.0 10171261
21:00+8зюз6986100 1.7 1017739
6 октября, чт
чт600:00+8зюз598553 0.9 1017765
03:00+6зюз5888100 0.9 1018747
06:00+6зсз588493 0.3 1018803
09:00+7зсз687664 0.4 1019886
12:00+8зсз576792 0.2 10191161
15:00+9зсз4669100 0.3 1019960
18:00+7з378429 0.3 1021318
21:00+6зюз248780 0.3 102181
7 октября, пт
пт700:00+7юз369191 0.0 1020238
03:00+8юз41093100 0.1 1019371
06:00+9юз5129425 0.1 1017398
09:00+11зюз7128440 0.1 1017556
12:00+12зсз6108684 0.0 1018633
15:00+15зсз710645 0.0 10191260
18:00+10зсз497869 0.0 1021319
21:00+9зсз61177100 0.0 1023781
8 октября, сб
сб800:00+8зсз512760 0.0 1023401
03:00+7з410880 0.0 1024258
06:00+5з37950 0.0 1026148
09:00+9з46780 0.0 1027326
12:00+13з45590 0.0 1026790
15:00+14зюз44520 0.0 1025892
18:00+10юз33695 0.0 102535
21:00+8юз34745 0.0 102568